Location: Burbank
(38.7788°N, 114.0429°W)
Time: 01:34:34
(UTC+00:00)

Tiros 1 despin weight - Pass Details

Date: 16 May 2026
Orbit: 554 x 591 km, 48.2° (Epoch: 6 June)

Event Time Altitude Azimuth Distance (km) Brightness Sun altitude
Rises 10:20:19 0° 189° (S) 2,762 - -20.0°
Reaches altitude 10° 10:23:29 10° 165° (SSE) 1,861 - -19.6°
Exits shadow 10:24:30 13° 151° (SSE) 1,682 ? -19.5°
Maximum altitude 10:25:47 14° 132° (SE) 1,596 ? -19.3°
Drops below altitude 10° 10:28:04 10° 99° (E) 1,854 ? -19.0°
Sets 10:31:12 0° 74° (ENE) 2,747 ? -18.6°
